Member area
Imprimable
Challenges > Delhalle - Amay, 13/04/2008, BEL - Le Semi Marathon d'Amay
List of reports > Delhalle - 21km - Classement scratch
Search: Page: [1]
158 Entries
 
Complains are not accepted anymore. Results are final.
PlaceNrNameAgeNATLeagueTeamRealTimeTkmMoy.ScrPtsCity
1.1134VANDERBECK Yves40BELRIWARONVAU1:15:571:15:573:36 16.6741060MALONNE
2.2032DOUPAGNE Claude45BELSERSERUNNER1:18:261:18:263:44 16.1491020SERAING
3.1529LOMBART Frederic41BELOCAN1:19:001:19:003:45 16.03101011GEMBLOUX
4.180GILBERT 2 Michel 241BELUACBOUFFIOL1:19:071:19:083:46 16.00111008MARCINELLE
5.1872GODFRIN Marc43BELARCH1:22:251:22:263:55 15.3618957MESNIL-SAINT-BLAISE
6.1650NEYMAN Eric40BEL1:24:261:24:284:01 14.9928922HERON
7.2249DUMONT Eric43BELHUY1:24:291:24:304:01 14.9829921AMAY
8.2265THIRION Jf44BELSERSERUNNER1:24:301:24:334:01 14.9730920FLÉMALLE
9.2355HENSENNE Bruno40BELRFCLJOGGING +1:24:401:25:024:02 14.8933916HACCOURT
10.1631CADO Paul48BELFLEUFLEU1:25:061:25:104:03 14.8634909LIGNY
11.1099DE NARDI Jean-Carlo46BEL1:26:111:26:124:06 14.6936893SAINT SERVAIS
12.2307REBEIX Jean Philippe49BEL1:26:431:26:484:07 14.5939884VILLERS LE TEMPLE
13.217MELIN Thierry45BELRIWA1:27:311:27:354:10 14.4541872GENVAL
14.2035HARDENNE Andre43BELFLEU1:27:411:27:444:10 14.4342869LA HESTRE
15.2033DATTOLI Matteo49BELAMAY1:28:101:28:114:11 14.3645861HUY
16.1291SCHALKWIJK Benoit48BELARCH1:28:481:28:564:13 14.2451848TONGRINNE
17.1102GOMZE Michel41BEL1:29:051:29:124:14 14.1954843ENSIVAL
18.1111HELSEN Philippe46BEL1:29:101:29:174:14 14.1855841STAVELOT
19.467LENAERS Charles D.49BEL1:29:511:29:524:16 14.0958830LIEGE
20.2271DEHAIRS André48BELSERUNNER1:29:591:30:004:16 14.0759828GRÂCE-HOLLOGNE
21.2254DELLEUR Jean Marie43BEL1:30:151:30:324:18 13.9863822EBEN EMAEL
22.1139LORGE Jean Marc42BELRONVAU1:30:301:30:364:18 13.9764818EGHEZEE
23.2026DENDAL Didier45BEL1:30:431:30:474:19 13.9568812LIÈGE
24.396HANOTIAUX Eric44BELRRTC1:30:561:30:584:19 13.9271807CHARLEROI
25.1195BARBIER Jean47BELARCH1:31:591:32:004:22 13.7677790ANDENNE
26.2017THIELGEN Eric49BELHRC1:32:071:32:104:23 13.7478788
27.2358BIEMAR Christian42BELHERV1:32:061:32:344:24 13.6884784HERVE
28.1448HANOT Serge45BELRONVAU1:32:521:32:544:25 13.6387772LATHUY
29.5002LEMAIRE Philippe47BELRONVAU1:32:511:32:554:25 13.6389771LASNE
30.2367DEFLANDRE Rudy40BELSERUNNER1:33:141:33:224:26 13.5691765SERAING
31.2343DANTINNE Willy48BELRT BRAIVES1:33:021:33:234:26 13.5692767HANNUT
32.2352SCHOONBROODT J.Pierr41BELATCC1:33:161:33:324:26 13.5494762MODAVE
33.1271ROMBAUX Marc48BELCSDY1:33:081:33:354:27 13.5396763LOUVAIN LA NEUVE
34.2219BAECKELANDT Marcel48BELVICO MARCHIN1:33:401:33:444:27 13.5198755ENGIS
35.837CEUPPENS Paul47BELHAMURABI1:34:031:34:094:28 13.45102747LINT
36.404TILBURGS Frank41BELAVN1:34:091:34:124:28 13.44103745MEER
37.216NOSSAINT Philippe48BEL1:34:261:34:294:29 13.40109738ANDENNE
38.769LEMINEUR Vincent43BELRCNAMUR1:34:311:34:484:30 13.35111735CHAMPION
39.2311ETIENNE Bernard46BEL1:34:381:34:504:30 13.35112733BLEGNY
40.2374GERIS Ioannis41BELRFCL1:34:531:34:594:31 13.33113730MELEN
41.2227BIELEN Michel49BEL1:36:021:36:134:34 13.16118712FLÉMALLE
42.2231HECQ Olivier42BEL1:36:131:36:314:35 13.12119709ANDENNE
43.2280JOBE Eric46BEL1:37:111:37:184:37 13.01122696OCQUIER
44.1777MARTIN Eric45BEL1:37:051:37:184:37 13.01123696WANDRE LIEGE
45.1292COPPEJANS Patrick41BELSODIBRUG1:37:341:37:554:39 12.93129686BRUGGE
46.2274BRUCCULERI Tony49BEL1:37:481:38:054:39 12.91131682SERAING
47.2036FAFCHAMPS Eudore48BELRFCLHERSTAL1:38:031:38:114:40 12.89133678VOTTEM
48.1260VAN BERGEN Alain47BELFLEUFLEU ATHL1:38:201:38:424:41 12.83137672AISEAU
49.2050BLANCO Ramon47BEL1:38:231:38:444:41 12.82138671HUY
50.623PISCART Pierre48BELONHOXY20001:38:381:38:494:41 12.81139667MONS
51.498HEYNDRICKX Jan46BELKAPUCIJN1:38:461:39:044:42 12.78142663BERTEM
52.2025KEUS Patrick44BELSC BUTGENBACH1:38:391:39:054:42 12.78143664BULLANGE
53.614MASALA Vincenzo41BELACLO1:39:081:39:134:43 12.76144658HAINE SAINT PIERRE
54.2217ELOY Fabien49BEL1:39:111:39:204:43 12.74147655HERMALLE S/ARG.
55.2365MOUTON Benoit40BEL1:38:591:39:244:43 12.74148657HUY
56.482THIJS Chris42BELKAPUCIJN1:39:091:39:404:44 12.70149654TERVUREN
57.378BLAUWART Emmanuel40BELETCHIEVR1:40:051:40:234:46 12.61151642HERCHIES
58.360WAROUX Patrick45BELETCHIEVR1:40:051:40:234:46 12.61152641CASTEAU
59.2048LIMET Eric44BELAMAY1:40:281:40:494:47 12.56155635ERWEZ
60.2041BASTIN Thierry41BELSERUNNER1:40:571:41:084:48 12.52157628SERAING
61.2303FUNKEN Didier49BEL1:41:131:41:284:49 12.48163621MOMALLE
62.2043VOLON Patrick49BELFACFLEMALLE1:41:251:41:364:49 12.46165617LIÈGE
63.1180DELVAUX Phiplippe45BELSMAC1:41:501:41:594:50 12.41169610JAMBES
64.2247BECKERS Serge46BELSERUNNER1:42:181:42:254:52 12.36175600LIÈGE
65.2230IPACH Pierre41BEL1:42:181:42:254:52 12.36176599SOUMAGNE
66.2212KEIL Alain42BEL1:42:231:42:294:52 12.35177598BASSENGE
67.2244RONGVAUX Bernard48BEL1:42:251:42:394:52 12.33178597VIRTON
68.2045CARRIER Serge44BEL1:42:271:42:574:53 12.30181594JAUCHE
69.2348FERIR Patrick43BEL1:42:291:42:594:53 12.29182593WANZE
70.2361TASSET Jean Luc42BELJOGGING +1:42:311:43:044:54 12.28183592VISÉ
71.269NENNEN Arnaud45BELSMAC1:42:591:43:084:54 12.28186585GELBRESSEE
72.2345THIRION Marc40BELFOULEES DU PLAISIR1:43:071:43:154:54 12.26188582HUY
73.2371BIERNAUX Benoit47BELRCNAMUR1:42:471:43:184:54 12.26191583NAMUR
74.812BATISTIC Patrick44BELRONVAU1:43:171:43:264:55 12.24192577NALINNES
75.2350BAWIN Regis40BEL1:43:011:43:284:55 12.24194579SERAING
76.2329RENARD Patrick49BELACO1:43:331:43:574:56 12.18198570REMICOURT
77.2239RECHT José46BELHERVE1:43:371:44:024:56 12.17200568BEYNE-HEUSAY
78.2049PARDO Garcia J.44BELSERSERUNNER1:43:471:44:084:57 12.16201565SERAING
79.1661COOREMANS Guy42BELRCNAMUR1:44:031:44:244:57 12.13204560SOYE
80.2252PEREMANS Vincent43BEL1:44:321:44:394:58 12.10206554GRUNE
81.2023FALAGAN Benito49BELSERUNNER1:44:351:44:434:58 12.09207552SERAING
82.2268COLLIN Christian47BEL1:44:361:44:474:58 12.08208552BELLAIRE
83.2299RENIER Dominique44BELRT BRAIVES1:44:321:44:484:59 12.08209552TOURINNE (LG.)
84.1864DE ROECK Patrick46BELSERSERUNNER1:45:191:45:345:01 11.99214540OUGREE
85.2009GLEVICZKY Andre46BELTITAN NIVELLES1:45:221:45:345:01 11.99215538HEVILLERS
86.1227SCOUPPE Gery46BELUSBWUSBW RT1:45:021:45:355:01 11.99216541BRAINE L'ALLEUD
87.1262LAMBERT Pierre46BEL1:45:551:46:095:02 11.93227524AMAY
88.2318BECHET Marc45BEL1:45:561:46:105:02 11.92228523ENGIS
89.2325MAIRLOT Daniel42BEL1:45:451:46:195:03 11.91232522WAREMME
90.2245AMAND Francois46BELRFC ROAD R1:45:581:46:265:03 11.89235518SPRIMONT
91.1229HOUSSIER Didier43BEL1:46:061:46:275:03 11.89236516VILVOORDE
92.2315THOMAS Jean-Marie49BELVICO1:46:321:46:525:04 11.85239509WANZE
93.2313RAIMOND Eric49BELJACO1:46:371:46:545:04 11.84240507BAILEUX
94.2284DEWART Henri49BELRFCL1:46:451:47:125:05 11.81243504LIÈGE
95.1963BISIAU Philippe47FRA1:47:041:47:375:07 11.76245499LILLE
96.2038SATTA Constantin44BELUACDILAVILLE1:47:341:47:505:07 11.74247492COUILLET
97.425MOREAU Jean-Louis48BELJCCS1:48:041:48:225:09 11.68251484TOERNICH
98.2018D'ANTUONO Michele40BELHRC1:48:301:48:395:09 11.65256476
99.569CLEMENT Serge48BELHRC1:48:281:48:425:10 11.65257476HACHY
100.2010DEWASSEIGE Jean43BEL1:48:491:49:025:11 11.61262469BRUXELLES
101.1269DEPOORTER Yves43BEL1:49:001:49:215:11 11.58268463VILVOORDE
102.2319JOST Alain42BELD'ZYS1:48:461:49:215:11 11.58270463FRAITURE
103.2354MEURISSE Pascal42BEL1:48:501:49:255:12 11.57271462AVIN
104.1590POPPE Christian49BEL1:49:381:49:475:13 11.53274452MARCHE-EN-FAMENNE
105.901RENAUX Jean-Louis48BELHRC1:50:071:50:185:14 11.48276445HABAY-LA-NEUVE
106.1654BRYNART Alain48BELACLO1:50:441:50:535:16 11.42282435HOUDENG-AIMERIES
107.608ROSSI Stephane42BELROSCO TEAM1:50:371:50:555:16 11.41283435ROBERTVILLE
108.1259HAUTEKEER Jean Paul43BEL1:50:501:51:195:17 11.37290428VERLAINE
109.2046CUVELIER Guy49BEL1:51:211:51:345:18 11.35293421FRASNES-LEZ-GOSSELIE
110.413LIVEMONT Emmanuel47BELRRTC1:51:061:51:465:18 11.33296421SUARLEE
111.2301PATERNOSTRE Jean-Jacques46BELWAIKIKI1:51:371:52:025:19 11.30299413JUMET
112.2213DI VITA Antonino43BEL1:51:541:52:045:19 11.30302409VIVEGNIS
113.1117CLARINVAL Benoit49BELJCCS1:51:541:52:115:20 11.29304407GEDINNE
114.1480BOUCHET Fabrice49BELHRC1:52:131:52:445:21 11.23309400IZEL
115.1091HALLEMANS Jean-Pierre45BEL1:52:451:52:555:22 11.21312393SCHEPDAAL
116.2011ANDRE Alain48BELSERUNNER1:53:061:53:265:23 11.16314388SERAING
117.2278JACOB Serge48BEL1:53:221:53:325:23 11.15315385ENGIS
118.318STICKER Johan49BELOXYGENE1:52:551:53:345:23 11.15316389BIERCEE
119.1222SORNASSE Pascal49BELSMAC1:53:281:53:435:24 11.13319381BEUZET
120.1114DEBREUX Didier44BEL1:53:151:53:465:24 11.13321382MARBEHAN
121.2306BONSIGNORE Vincent49BELACLO1:53:261:53:505:24 11.12324378LA LOUVIÈRE
122.2340FASTRE Baudouin45BEL1:53:481:54:125:25 11.09332369MODAVE
123.2339DE LAMOTTE Bernard44BEL1:53:481:54:135:25 11.08333368MARCHIN
124.1439BERTRAND Philippe42BELUSBRANTILOB1:53:451:54:165:25 11.08334368
125.1473RUELLE Eric48BELJET1:53:421:54:205:26 11.07335367CHASTRE
126.154DEHON Michel49BELACLO1:54:111:54:345:26 11.05337361LA LOUVIERE
127.2314LAMPROYE Jean Luc44BEL1:54:301:54:405:27 11.04338358BODEGNEE
128.674THONON Jean Marc41BELRT BR1:54:371:55:185:28 10.98343353CIPLET
129.2210VANDE GHINSTE Christophe48BEL1:55:041:55:255:29 10.97344347BRAINE-LE-COMTE
130.2326WOJCIK Eric43BELSERUNNER1:54:561:55:325:29 10.96345348
131.2327MILITELLO Franco43BELSERUNNER1:54:561:55:335:29 10.96346347BONCELLES
132.203ALBERT Michel47BELRONVAU1:55:431:55:515:30 10.93352335LIERNU
133.377SPRIMONT Olivier45BEL1:55:511:56:025:30 10.91353333UCCLE
134.192GEUSKENS J.Marc44BEL1:55:471:56:175:31 10.89355333BRUXELLES
135.2295POELMANS Dominique47BELRC NAMUR1:55:501:56:235:31 10.88359329BOUGE
136.561HAINAUT Charles49BEL1:56:401:56:575:33 10.83362319GERPINNES
137.2298SPRUMONT Claude46BEL1:56:411:57:175:34 10.79366316OTEPPE
138.1340MALENGREAUX Patrice46BELTORTUES1:57:161:57:385:35 10.76371307BRAY
139.1141EVRARD Pierre47BEL1:57:251:57:525:36 10.74373304MALONNE
140.2042ROMBOUTS Robert44BEL1:57:281:57:595:36 10.73375302BERCHEM
141.2207SURLEMONT Bernard47BEL1:58:361:59:055:39 10.63384285TILFF
142.2006GHEURY Jean-Marie40BELSERSERUNNER1:59:181:59:305:40 10.59388275SERAING
143.2028RAPAGNA Toni49BELSERUNNER2:00:122:00:495:44 10.48396261GRÂCE-HOLLOGNE
144.2051CUSTERS Michel49BEL2:01:052:01:305:46 10.42400250SERAING
145.2266OOLMANN Patrick45BELSERAING2:01:502:02:095:48 10.36402242VILLERS-LE-TEMPLE
146.2375VANHOUCHE Michel44BEL2:01:442:02:235:49 10.34405240TUBIZE
147.2323OGER Philippe43BELHUY2:02:122:02:465:50 10.31408234AMAY
148.1499GEUSKENS Nicolas40BEL2:02:212:02:505:50 10.31409232WAVRE
149.865SANTOCONO Jerome47BELACLO2:03:352:03:585:53 10.21414217MORLANWELZ
150.1709CUGNON Marc41BEL2:03:572:04:355:55 10.16416212FORRIERES
151.2259FANARA Pascal45BELSERAING2:04:582:05:355:58 10.08419200LIÈGE
152.2373REPPEN Nicolas43BEL2:05:532:06:216:00 10.02422190HACCOURT
153.2262LICCIARDI Lillo47BELSERUNNER2:06:232:06:276:00 10.01423185GRÂCE-HOLLOGNE
154.1912COLSON Pascal46BELACLO2:06:172:06:396:01 10.00424185MANAGE
155.584UBIETA Didier47BELFOUL PLAIS2:09:252:09:456:09 9.76431152VINALMONT
156.252ANTOINE Alain47BELRCNAMUR2:12:062:12:316:17 9.55445119BOUGE
157.2234MICHEL Serge44BELHRC2:17:052:17:316:32 9.2145371
DNF2324ISTACE Eric43BELREMICOURT
DNF: did not finish; DSQ: disqualified; Speed in km/h
Page: [1]